DELTA 1 DEB

Satellite information

Favourite Embed

Satellite Type and Status

DEBRISIN ORBIT

Key statistics

Satellite DELTA 1 DEB at a glance.

Uptime

17400

Days in orbit

Revolutions

≈ 14.1

Per day

Orbit

SSO

Sun Synchronous Orbit

Inclination

98.8

Latest

Satellite identification and parameters

Extended collection of information and parameters for DELTA 1 DEB.

Object identification

Identified? True

Debris? True

Object name: DELTA 1 DEB

International designator: 1978-026FE

Object number (NORAD): 13567

Object ID (CCSDS): 13567

Country: UNITED STATES OF AMERICA (US)

Current information (Y/N): Y

RCS size: SMALL

Orbital parameters

Period: 102.487 minutes

Inclination: 98.8147 deg

SMA: 7254.477 km

Apoapsis: 1005.457 km

Periapsis: 747.227 km

RAAN: 85.4733 deg

Eccentricy: 0.01779796

Argument of periapsis: 4.6605 deg

Mean anomaly: 114.5602 deg

Mean motion: 14.05055936 rev/day

Mean motion (dot): 0.00003123 rev/day2

B* drag term: 0.0017040164 1/REarth

Two-line elements (TLE)

Creation date: Oct. 24, 2025, 2:48 a.m.

Reference frame: TEME

Reference center: EARTH

Epoch: Oct. 23, 2025, 11:29 p.m. UTC

TLE line 0: 0 DELTA 1 DEB

TLE line 1: 1 13567U 78026FE 25296.97914860 .00003123 00000-0 17040-2 0 9996

TLE line 2: 2 13567 98.8147 85.4733 0177980 4.6605 114.5602 14.05055936177893

Live tracking on map

Real-time ground track for satellite DELTA 1 DEB.

In-orbit conjunctions

A list of the most updated potential collisions computed for object DELTA 1 DEB.

Target Orbit TCA Probability of collision Miss distance Type
THOR ABLESTAR DEB LEO 2024-11-02 02:17:03 0.0001116162 74.0 (m) DEBRIS
SL-8 R/B LEO 2024-09-26 12:47:14 0.0004318694 130.0 (m) ROCKET BODY
COSMOS 1275 DEB LEO 2024-05-31 11:38:55 0.0001429976 113.0 (m) DEBRIS

Associated space launch

Earth observation satellite

DELTA 1 DEB was lifted into orbit during the mission ‘Delta 2910 | Landsat 3’, on board a Delta 2910 space rocket.

The launch took place on March 5, 1978, 5:54 p.m. from Space Launch Complex 2W.

For more information about the launch, click the button.

Launch to space Delta 2910 | Landsat 3
Delta 2910 | Landsat 3

Agency: N/A

Status: Launch Successful

Launch date: March 5, 1978, 5:54 p.m. UTC

Rocket: Delta 2910

Launch pad: Space Launch Complex 2W

Location: Vandenberg SFB, CA, USA

...

Latest news about this satellite

There are no fresh news available about this satellite. Check back as we update our databases every day.


Newsletter sign-up

Weekly statistics, charts and insights to help you stay on top of the space industry.